GW3385 Weather Reports


time (UTC)temp
C
wind
direction
speed
KPH
gust
KPH
rain 1hr
cm
rain 24hr
cm
rain mn
cm
humidity
%
barometer
mb
20260505153107 15 165 3.2 8.0 0.00 0.00 0.00 69 1012.9
20260505152552 15 283 1.6 8.0 0.00 0.00 0.00 70 1012.9
20260505152051 16 242 1.6 9.7 0.00 0.00 0.00 69 1012.7
20260505151556 16 193 0.0 9.7 0.00 0.00 0.00 69 1012.7
20260505151100 16 92 0.0 3.2 0.00 0.00 0.00 68 1012.7
20260505150556 16 0 0.0 6.4 0.00 0.00 0.00 69 1012.6
20260505140553 11 346 1.6 8.0 0.00 0.00 0.00 82 1012.5
20260505130125 11 0 0.0 1.6 0.00 0.00 0.00 83 1012.0
20260505124617 11 0 0.0 0.0 0.00 0.00 0.00 83 1012.0
20260505124052 11 0 0.0 1.6 0.00 0.00 0.00 83 1012.0
20260505123552 12 0 0.0 3.2 0.00 0.00 0.00 83 1012.0
20260505123116 12 0 0.0 4.8 0.00 0.00 0.00 82 1012.0
20260505122555 12 0 1.6 4.8 0.00 0.00 0.00 83 1012.0
20260505122056 12 0 0.0 4.8 0.00 0.00 0.00 83 1012.1
20260505121600 12 330 1.6 4.8 0.00 0.00 0.00 83 1012.0
20260505121058 12 0 0.0 4.8 0.00 0.00 0.00 83 1012.0
20260505120555 12 0 0.0 4.8 0.00 0.00 0.00 83 1012.0
20260505120118 12 315 0.0 4.8 0.00 0.00 0.00 83 1012.1
20260505115555 12 0 0.0 3.2 0.00 0.00 0.00 83 1012.1
20260505115052 13 0 0.0 3.2 0.00 0.00 0.00 83 1012.1
20260505114556 13 344 0.0 3.2 0.00 0.00 0.00 82 1012.1
20260505114055 13 0 0.0 1.6 0.00 0.00 0.00 82 1012.1
20260505113552 13 0 0.0 1.6 0.00 0.00 0.00 82 1012.0
20260505113105 13 0 0.0 4.8 0.00 0.00 0.00 82 1012.0
20260505112557 13 0 0.0 4.8 0.00 0.00 0.00 82 1012.0
20260505112056 13 266 0.0 6.4 0.00 0.00 0.00 81 1012.0
20260505111556 13 266 3.2 9.7 0.00 0.00 0.00 81 1012.0
20260505111056 13 287 1.6 9.7 0.00 0.00 0.00 81 1012.1
20260505110556 13 269 4.8 12.9 0.00 0.00 0.00 80 1012.1
20260505110116 13 250 3.2 12.9 0.00 0.00 0.00 79 1012.1
20260505102052 13 253 4.8 11.3 0.00 0.00 0.00 79 1012.2
20260505101601 13 273 6.4 11.3 0.00 0.00 0.00 79 1012.3
20260505101052 13 243 3.2 9.7 0.00 0.00 0.00 80 1012.3
20260505100559 13 288 1.6 6.4 0.00 0.00 0.00 81 1012.4
20260505100053 13 0 1.6 3.2 0.00 0.00 0.00 81 1012.2
20260505095555 13 307 0.0 1.6 0.00 0.00 0.00 80 1012.3
20260505095055 13 0 0.0 3.2 0.00 0.00 0.00 79 1012.4
20260505094556 13 0 0.0 3.2 0.00 0.00 0.00 79 1012.4
20260505094058 13 0 0.0 3.2 0.00 0.00 0.00 79 1012.4
20260505093555 13 0 0.0 1.6 0.00 0.00 0.00 77 1012.5
20260505093108 13 0 0.0 1.6 0.00 0.00 0.00 77 1012.5
20260505092556 13 0 0.0 4.8 0.00 0.00 0.00 76 1012.5
20260505092053 13 0 0.0 4.8 0.00 0.00 0.00 76 1012.7
20260505091555 13 0 0.0 3.2 0.00 0.00 0.00 75 1012.8
20260505091055 13 0 0.0 4.8 0.00 0.00 0.00 75 1012.9
20260505090553 13 0 0.0 4.8 0.00 0.00 0.00 76 1012.8
20260505090057 13 308 1.6 4.8 0.00 0.00 0.00 76 1012.8
20260505085552 13 0 0.0 6.4 0.00 0.00 0.00 77 1012.8
20260505085052 13 0 0.0 6.4 0.00 0.00 0.00 78 1012.9
20260505084556 13 0 0.0 6.4 0.00 0.00 0.00 79 1012.9
20260505084055 13 291 1.6 4.8 0.00 0.00 0.00 80 1013.1
20260505083555 13 0 0.0 4.8 0.00 0.00 0.00 82 1013.0
20260505083057 13 0 1.6 4.8 0.00 0.00 0.00 82 1013.0
20260505082556 13 342 1.6 4.8 0.00 0.00 0.00 83 1013.1
20260505082053 13 342 0.0 4.8 0.00 0.00 0.00 83 1013.1
20260505081603 13 338 1.6 4.8 0.00 0.00 0.00 83 1013.2
20260505081056 13 0 0.0 3.2 0.00 0.00 0.00 83 1013.2
20260505080556 13 0 0.0 4.8 0.00 0.00 0.00 84 1013.2
20260505080109 13 0 0.0 4.8 0.00 0.00 0.00 84 1013.3
20260505075556 13 316 0.0 3.2 0.00 0.00 0.00 85 1013.3
20260505075056 13 0 0.0 3.2 0.00 0.00 0.00 85 1013.3
20260505074556 13 0 0.0 4.8 0.00 0.00 0.00 85 1013.4
20260505074052 13 0 0.0 4.8 0.00 0.00 0.00 85 1013.4
20260505073555 13 0 0.0 0.0 0.00 0.00 0.00 85 1013.4
20260505073054 13 0 0.0 3.2 0.00 0.00 0.00 85 1013.4
20260505072551 13 0 0.0 3.2 0.00 0.00 0.00 86 1013.5
20260505072056 13 0 0.0 3.2 0.00 0.00 0.00 86 1013.6
20260505071556 13 0 0.0 3.2 0.00 0.00 0.00 86 1013.5
20260505071052 13 0 0.0 3.2 0.00 0.00 0.00 86 1013.5
20260505070559 13 294 0.0 1.6 0.00 0.00 0.00 86 1013.5
20260505070110 13 0 0.0 3.2 0.00 0.00 0.00 86 1013.5
20260505065556 13 32 0.0 4.8 0.00 0.00 0.00 87 1013.4
20260505065057 13 35 0.0 4.8 0.00 0.00 0.00 87 1013.5
20260505064556 13 19 1.6 4.8 0.00 0.00 0.00 87 1013.5
20260505064056 13 0 0.0 3.2 0.00 0.00 0.00 87 1013.6
20260505063552 13 344 0.0 3.2 0.00 0.00 0.00 87 1013.5
20260505063058 13 0 0.0 3.2 0.00 0.00 0.00 87 1013.5
20260505062553 13 0 0.0 3.2 0.00 0.00 0.00 87 1013.5
20260505062051 13 0 0.0 4.8 0.00 0.00 0.00 87 1013.5
20260505061558 13 0 0.0 4.8 0.00 0.00 0.00 87 1013.5
20260505061058 13 0 3.2 9.7 0.00 0.00 0.00 87 1013.5
20260505060556 13 270 3.2 9.7 0.00 0.00 0.00 87 1013.5
20260505060056 13 251 1.6 11.3 0.00 0.00 0.00 87 1013.5
20260505055556 13 273 4.8 11.3 0.00 0.00 0.00 87 1013.7
20260505055056 13 254 0.0 11.3 0.00 0.00 0.00 87 1013.7
20260505054558 13 0 1.6 11.3 0.00 0.00 0.00 87 1013.6
20260505054059 13 257 0.0 11.3 0.00 0.00 0.00 87 1013.7
20260505053555 13 253 0.0 9.7 0.00 0.00 0.00 87 1013.6
20260505053104 13 265 4.8 14.5 0.00 0.00 0.00 87 1013.6
20260505052556 13 275 4.8 14.5 0.00 0.00 0.00 87 1013.7
20260505052058 13 285 6.4 12.9 0.00 0.00 0.00 86 1013.7
20260505051556 13 286 4.8 12.9 0.00 0.00 0.00 86 1013.7
20260505051055 13 250 3.2 9.7 0.00 0.00 0.00 86 1013.8
20260505050556 13 267 1.6 9.7 0.00 0.00 0.00 86 1013.8
20260505041555 13 169 6.4 12.9 0.00 0.00 0.00 85 1014.0
20260505041055 13 200 4.8 14.5 0.00 0.00 0.00 85 1014.1
20260505040557 13 283 6.4 16.1 0.00 0.00 0.00 85 1013.9
20260505040105 13 272 8.0 17.7 0.00 0.00 0.00 85 1013.9
20260505035555 13 261 8.0 17.7 0.00 0.00 0.00 84 1014.0
20260505035052 14 284 11.3 17.7 0.00 0.00 0.00 84 1014.1
20260505034557 14 243 3.2 16.1 0.00 0.00 0.00 84 1014.0
20260505034057 14 269 8.0 16.1 0.00 0.00 0.00 83 1013.9
20260505033556 14 268 8.0 19.3 0.00 0.00 0.00 83 1013.8
20260505033057 14 274 9.7 19.3 0.00 0.00 0.00 82 1013.8
20260505032556 14 274 6.4 16.1 0.00 0.00 0.00 82 1013.8
20260505032055 14 180 3.2 16.1 0.00 0.00 0.00 82 1013.7
20260505031555 14 286 4.8 16.1 0.00 0.00 0.00 82 1013.7
20260505031055 14 297 4.8 16.1 0.00 0.00 0.00 82 1013.5
20260505030556 14 277 6.4 17.7 0.00 0.00 0.00 81 1013.6
20260505030104 14 290 8.0 17.7 0.00 0.00 0.00 80 1013.6
20260505025556 14 297 6.4 16.1 0.00 0.00 0.00 80 1013.5
20260505025055 14 203 4.8 16.1 0.00 0.00 0.00 80 1013.5
20260505024555 14 242 4.8 19.3 0.00 0.00 0.00 80 1013.5
20260505024052 14 240 6.4 19.3 0.00 0.00 0.00 80 1013.5
20260505023556 14 271 9.7 19.3 0.00 0.00 0.00 80 1013.4
20260505023058 14 258 9.7 19.3 0.00 0.00 0.00 80 1013.3
20260505022556 14 225 6.4 19.3 0.00 0.00 0.00 80 1013.3
20260505022056 14 261 11.3 25.7 0.00 0.00 0.00 79 1013.3
20260505021559 14 278 12.9 25.7 0.00 0.00 0.00 80 1013.4
20260505021055 14 270 11.3 24.1 0.00 0.00 0.00 80 1013.3
20260505020556 14 300 14.5 25.7 0.00 0.00 0.00 79 1013.3
20260505020057 15 254 12.9 25.7 0.00 0.00 0.00 78 1013.3
20260505015556 15 291 14.5 25.7 0.00 0.00 0.00 77 1013.4
20260505015059 15 277 14.5 27.4 0.00 0.00 0.00 77 1013.3
20260505014556 15 267 12.9 27.4 0.00 0.00 0.00 78 1013.1
20260505014055 15 211 14.5 27.4 0.00 0.00 0.00 77 1013.2
20260505013555 15 215 11.3 27.4 0.00 0.00 0.00 77 1013.3
20260505013057 15 288 14.5 25.7 0.00 0.00 0.00 78 1013.3
20260505012556 15 262 14.5 24.1 0.00 0.00 0.00 79 1013.5
20260505012055 15 276 11.3 22.5 0.00 0.00 0.00 78 1013.6
20260505011557 15 331 8.0 27.4 0.00 0.00 0.00 80 1013.6
20260505011055 15 257 12.9 27.4 0.00 0.00 0.00 79 1013.6
20260505010556 15 225 17.7 27.4 0.00 0.00 0.00 79 1013.7
20260505010103 15 261 14.5 25.7 0.00 0.00 0.00 79 1013.7
20260505005556 15 277 12.9 27.4 0.00 0.00 0.00 79 1013.7
20260505005056 15 273 14.5 27.4 0.00 0.00 0.00 79 1013.6
20260505004556 15 271 16.1 27.4 0.00 0.00 0.00 77 1013.6
20260505004055 15 227 12.9 27.4 0.00 0.00 0.00 78 1013.6
20260505003559 16 242 12.9 29.0 0.00 0.00 0.00 78 1013.6
20260505003104 16 234 12.9 29.0 0.00 0.00 0.00 77 1013.7
20260505002552 16 261 12.9 22.5 0.00 0.00 0.00 78 1013.8
20260505002053 16 218 9.7 22.5 0.00 0.00 0.00 77 1013.7
20260505001558 15 287 9.7 22.5 0.00 0.00 0.00 78 1013.8
20260505001056 15 186 11.3 27.4 0.00 0.00 0.00 79 1013.7
20260505000552 15 202 17.7 29.0 0.00 0.00 0.00 78 1013.7
20260505000108 15 298 16.1 32.2 0.00 0.00 0.00 77 1013.6
20260504235556 16 284 17.7 32.2 0.00 0.00 0.00 75 1013.5
20260504235055 16 263 12.9 25.7 0.00 0.00 0.00 75 1013.5
20260504234558 16 262 14.5 27.4 0.00 0.00 0.00 74 1013.5
20260504234056 16 280 16.1 29.0 0.00 0.00 0.00 74 1013.6
20260504233556 16 280 19.3 30.6 0.00 0.00 0.00 72 1013.6
20260504233105 16 283 12.9 30.6 0.00 0.00 0.00 74 1013.5
20260504232556 16 218 12.9 30.6 0.00 0.00 0.00 77 1013.4
20260504232055 16 239 14.5 30.6 0.00 0.00 0.00 77 1013.4
20260504231555 16 277 16.1 30.6 0.00 0.00 0.00 76 1013.5
20260504231056 16 315 14.5 29.0 0.00 0.00 0.00 76 1013.6
20260504230555 16 277 16.1 33.8 0.00 0.00 0.00 78 1013.6
20260504230057 16 255 16.1 33.8 0.00 0.00 0.00 77 1013.8
20260504225557 16 276 19.3 32.2 0.00 0.00 0.00 75 1014.0
20260504225055 16 259 14.5 25.7 0.00 0.00 0.00 74 1014.0
20260504224557 16 309 11.3 25.7 0.00 0.00 0.00 76 1013.9
20260504224057 16 266 9.7 30.6 0.00 0.00 0.00 75 1013.9
20260504223555 16 200 12.9 30.6 0.00 0.00 0.00 76 1014.1
20260504223057 16 207 17.7 33.8 0.00 0.00 0.00 76 1014.1
20260504222552 16 286 14.5 33.8 0.00 0.00 0.00 76 1014.2
20260504222056 16 200 14.5 33.8 0.00 0.00 0.00 75 1014.2
20260504221556 16 268 14.5 32.2 0.00 0.00 0.00 75 1014.2
20260504221053 16 294 17.7 30.6 0.00 0.00 0.00 75 1014.3
20260504220556 16 290 14.5 29.0 0.00 0.00 0.00 75 1014.4
20260504220118 16 251 16.1 30.6 0.00 0.00 0.00 75 1014.5
20260504215556 16 219 16.1 30.6 0.00 0.00 0.00 74 1014.3
20260504215059 16 260 14.5 29.0 0.00 0.00 0.00 74 1014.4
20260504214557 16 279 14.5 33.8 0.00 0.00 0.00 75 1014.4
20260504214056 16 252 16.1 35.4 0.00 0.00 0.00 74 1014.5
20260504213555 16 280 17.7 35.4 0.00 0.00 0.00 73 1014.6
20260504213100 16 234 14.5 33.8 0.00 0.00 0.00 74 1014.7
20260504212556 16 276 17.7 33.8 0.00 0.00 0.00 73 1014.6
20260504212056 16 257 14.5 33.8 0.00 0.00 0.00 74 1014.6
20260504211557 16 266 17.7 33.8 0.00 0.00 0.00 72 1014.7
20260504211056 16 271 17.7 27.4 0.00 0.00 0.00 71 1014.7
20260504210557 16 279 14.5 24.1 0.00 0.00 0.00 71 1014.8
20260504210056 16 267 12.9 29.0 0.00 0.00 0.00 71 1014.6
20260504205555 16 273 14.5 29.0 0.00 0.00 0.00 70 1014.5
20260504205055 16 279 17.7 29.0 0.00 0.00 0.00 68 1014.5
20260504204556 17 196 11.3 24.1 0.00 0.00 0.00 68 1014.6
20260504204055 16 221 12.9 29.0 0.00 0.00 0.00 67 1014.5
20260504203556 17 182 14.5 29.0 0.00 0.00 0.00 66 1014.6
20260504203057 17 267 12.9 25.7 0.00 0.00 0.00 66 1014.5
20260504202557 17 294 14.5 27.4 0.00 0.00 0.00 66 1014.4
20260504202052 17 230 14.5 27.4 0.00 0.00 0.00 66 1014.3
20260504201556 17 267 12.9 27.4 0.00 0.00 0.00 65 1014.4
20260504201056 16 205 14.5 27.4 0.00 0.00 0.00 64 1014.3
20260504200555 17 279 14.5 27.4 0.00 0.00 0.00 64 1014.4
20260504200100 17 260 16.1 29.0 0.00 0.00 0.00 63 1014.4
20260504195555 17 224 12.9 29.0 0.00 0.00 0.00 64 1014.3
20260504195052 17 259 12.9 29.0 0.00 0.00 0.00 64 1014.3
20260504194555 17 267 9.7 29.0 0.00 0.00 0.00 63 1014.3
20260504194056 17 284 12.9 27.4 0.00 0.00 0.00 64 1014.4
20260504193556 17 236 8.0 32.2 0.00 0.00 0.00 65 1014.5
20260504193055 17 297 14.5 32.2 0.00 0.00 0.00 65 1014.5
20260504192555 17 290 9.7 25.7 0.00 0.00 0.00 65 1014.4
20260504192055 17 278 11.3 25.7 0.00 0.00 0.00 64 1014.5
20260504191557 17 228 9.7 22.5 0.00 0.00 0.00 64 1014.5
20260504191056 17 211 8.0 24.1 0.00 0.00 0.00 64 1014.5
20260504190556 17 281 9.7 24.1 0.00 0.00 0.00 65 1014.4
20260504190107 17 257 9.7 24.1 0.00 0.00 0.00 65 1014.5
20260504185555 16 227 11.3 25.7 0.00 0.00 0.00 66 1014.5
20260504185055 16 155 9.7 25.7 0.00 0.00 0.00 67 1014.7
20260504184613 16 218 12.9 24.1 0.00 0.00 0.00 66 1014.8
20260504184052 16 261 9.7 20.9 0.00 0.00 0.00 67 1014.9
20260504183555 16 221 8.0 22.5 0.00 0.00 0.00 67 1014.9
20260504183111 16 186 6.4 22.5 0.00 0.00 0.00 68 1014.7
20260504182552 16 190 6.4 24.1 0.00 0.00 0.00 69 1014.8
20260504182053 16 277 14.5 24.1 0.00 0.00 0.00 67 1014.7
20260504181552 16 207 9.7 25.7 0.00 0.00 0.00 68 1014.7
20260504181056 16 264 9.7 25.7 0.00 0.00 0.00 68 1014.8
20260504180556 16 304 12.9 25.7 0.00 0.00 0.00 67 1014.9
20260504180056 16 246 11.3 24.1 0.00 0.00 0.00 67 1014.8
20260504175556 16 240 9.7 24.1 0.00 0.00 0.00 68 1014.7
20260504175056 16 240 12.9 27.4 0.00 0.00 0.00 67 1014.8
20260504174604 16 182 11.3 27.4 0.00 0.00 0.00 69 1014.7
20260504174057 16 225 14.5 25.7 0.00 0.00 0.00 70 1014.6
20260504173556 16 140 11.3 20.9 0.00 0.00 0.00 70 1014.5
20260504173106 16 212 11.3 19.3 0.00 0.00 0.00 71 1014.5
20260504172555 16 246 11.3 19.3 0.00 0.00 0.00 71 1014.5
20260504172055 16 234 6.4 16.1 0.00 0.00 0.00 72 1014.5
20260504171558 16 171 8.0 16.1 0.00 0.00 0.00 71 1014.5
20260504171055 16 224 6.4 16.1 0.00 0.00 0.00 71 1014.4
20260504170557 16 261 9.7 16.1 0.00 0.00 0.00 70 1014.4